Location: Doux
(49.5045°N, 4.4321°E)
Time: 03:22:12
(UTC+00:00)

NOSS 3-4 (C) - Pass Details

Date: 23 May 2024
Orbit: 814 x 1397 km, 63.4° (Epoch: 04 June)

Event Time Altitude Azimuth Distance (km) Brightness Sun altitude
Rises 00:33:16 0° 315° (NW) 3,768 7.0 -18.8°
Reaches altitude 10° 00:35:47 10° 311° (NW) 2,892 6.3 -18.7°
Maximum altitude 00:42:28 53° 237° (WSW) 1,411 4.0 -18.5°
Enters shadow 00:47:18 23° 171° (S) 2,380 5.0 -18.2°
